Location: Charleston
(38.3500°N, 81.6330°W)
Time: 14:46:53
(UTC-05:00)

Daily predictions for brighter satellites

Satellite Brightness Start Highest point End
(mag) Time Altitude Azimuth Time Altitude Azimuth Time Altitude Azimuth
AQUARIUS 4.3 17:59:15 10° SSE 18:03:44 86° WSW 18:08:16 10° NNW
Lacrosse 5 4.2 18:04:36 10° NNW 18:05:49 11° NNW 18:07:02 10° N
Cosmos 1844 Rocket 3.4 18:03:24 10° NNW 18:08:59 62° WSW 18:14:30 10° S
OTV 4 1.9 18:12:33 10° W 18:15:18 35° SSW 18:18:02 10° SE
Meteor 1-28 Rocket 4.0 18:12:39 10° NNE 18:15:58 30° E 18:19:18 10° SSE
Cosmos 1125 Rocket 3.4 18:11:31 10° NNW 18:16:44 77° ENE 18:21:55 10° SSE
CENTAUR R/B 4.0 18:11:16 10° WSW 18:16:47 33° NW 18:22:56 10° NNE
CZ-2C R/B 3.3 18:12:10 10° S 18:17:03 55° W 18:21:49 10° NNW
Meteor 2-10 4.3 18:13:05 10° N 18:18:01 46° ENE 18:23:02 10° SSE
YAOGAN 1 3.0 18:14:15 10° S 18:18:32 68° WSW 18:22:52 10° NNW
COSMO-SKYMED 1 2.6 18:16:17 10° NNE 18:20:34 57° E 18:24:50 10° S
Thor Agena Rocket 4.1 18:20:03 10° N 18:25:14 63° WNW 18:30:19 10° SSW
SPOT 3 Rocket 4.2 18:20:45 10° S 18:25:49 61° WSW 18:30:57 10° NNW
MSX 4.1 18:20:34 10° S 18:26:16 74° WSW 18:32:01 10° NNW
Resurs 01 Rocket 3.3 18:26:17 13° ENE 18:27:13 14° ENE 18:29:24 10° NE
Meteor 1-11 4.2 18:23:25 10° S 18:29:02 72° E 18:34:47 10° NNE
Cosmos 1666 Rocket 4.5 18:25:42 10° SSE 18:29:20 27° E 18:33:00 10° NNE
Lacrosse 5 rocket 1.3 18:26:03 10° NNW 18:29:46 52° NE 18:33:41 10° ESE
Cosmos 1980 4.1 18:24:40 10° SSW 18:30:19 67° WNW 18:35:59 10° NNE
Cosmos 1184 Rocket 4.3 18:30:20 10° SE 18:32:43 18° E 18:33:17 17° ENE
Cosmos 1538 Rocket 4.5 18:30:23 10° S 18:35:17 40° ESE 18:40:15 10° NNE
Cosmos 2151 3.3 18:31:30 10° SSW 18:35:40 70° W 18:39:52 10° N
Iridium 4 Rocket 4.4 18:35:33 10° SE 18:38:46 19° E 18:39:48 18° ENE
Cosmos 2279 Rocket 3.9 18:34:54 10° N 18:41:09 76° E 18:47:22 10° SSE
Cosmos 44 4.4 18:37:50 10° SW 18:42:52 45° NW 18:47:44 10° NNE
CZ-4 R/B 4.3 18:42:12 10° SW 18:45:04 20° W 18:47:57 10° NW
ALOS 3.3 18:42:27 10° ESE 18:46:09 24° ENE 18:49:51 10° NNE
NOAA 12 4.1 18:43:48 10° SSE 18:48:54 57° ENE 18:54:04 10° N
Cosmos 2333 Rocket 3.5 18:44:26 10° SW 18:49:40 39° WNW 18:54:57 10° N
Cosmos 2219 Rocket 3.9 18:46:09 10° WSW 18:51:02 30° WNW 18:55:56 10° N
Cosmos 1626 2.1 18:49:43 10° S 18:53:22 56° E 18:56:51 11° NNE
Milstar 3 4.4 18:50:49 10° WSW 18:56:26 27° SSW 19:02:17 10° SE
SJ-6B 3.0 18:53:58 10° SSE 18:57:55 52° ENE 19:01:56 10° N
Nadezhda 4 Rocket 4.0 18:53:09 10° S 18:59:14 59° E 19:05:26 10° NNE
Aureole 2 Rocket 4.0 18:55:56 10° SW 18:59:26 40° WNW 19:03:15 10° N
Cosmos 2242 Rocket 4.2 18:57:20 10° NNE 19:01:19 32° ENE 19:05:18 10° SE
Cosmos 1703 3.3 18:57:50 10° S 19:01:43 81° W 19:05:38 10° N
Cosmos 2278 Rocket 3.2 18:57:53 10° NNW 19:03:22 50° WSW 19:08:47 10° S
FAST Rocket 3.7 19:03:23 10° S 19:06:03 88° W 19:06:50 41° N
Cosmos 1455 2.2 19:03:15 10° N 19:06:59 54° E 19:10:43 10° SSE
Cosmos 1805 Rocket 3.8 19:03:17 10° SSW 19:07:43 72° W 19:12:12 10° N
SL-19 R/B 4.4 19:06:44 10° SE 19:12:30 56° ENE 19:17:59 10° N
Lacrosse 4 Rocket 3.1 19:10:41 10° N 19:12:09 18° NNE 19:12:09 18° NNE
Cosmos 773 Rocket 3.9 19:11:26 10° S 19:16:31 64° ESE 19:19:20 27° NNE
FREGAT/IRIS 2.6 19:15:03 10° S 19:18:05 82° WSW 19:21:09 10° NNW
Cosmos 1092 Rocket 4.0 19:13:22 10° S 19:19:35 62° E 19:25:50 10° NNE
Sich 1 3.3 19:20:41 10° SSW 19:25:06 72° W 19:29:33 10° N
USA 215 3.2 19:21:36 24° ESE 19:25:51 73° NE 19:32:23 10° NW
Cosmos 2237 Rocket 4.1 19:21:44 10° WSW 19:26:22 26° WNW 19:31:01 10° N
Cosmos 1461 4.2 19:27:51 10° WSW 19:31:43 36° NW 19:33:37 23° N
Cosmos 2369 Rocket 4.1 19:28:19 10° N 19:29:27 14° NNE 19:29:27 14° NNE
Cosmos 1633 Rocket 3.3 19:28:12 10° SSW 19:32:35 67° W 19:36:08 15° N
SL-16 R/B 2.9 19:27:29 10° SW 19:32:58 51° WNW 19:37:58 13° N
Cosmos 2195 Rocket 4.3 19:38:49 10° S 19:44:48 63° E 19:46:13 50° NE
CZ-3A R/B 2.9 19:55:21 10° NW 19:59:52 82° SW 20:01:30 49° SE
Aureole 1 Rocket 4.3 19:55:11 10° SW 20:00:19 58° WNW 20:05:29 17° N
Spot 2 Rocket 3.8 19:57:14 10° S 20:02:14 64° WSW 20:07:15 10° NNW
Resurs 01 Rocket 2.4 20:03:50 50° WNW 20:03:50 50° WNW 20:07:34 10° NNW
FENGYUN 3A 4.2 20:02:23 10° S 20:07:37 56° W 20:12:54 10° NNW
Lacrosse 5 rocket 4.1 20:06:18 10° W 20:08:40 15° WSW 20:10:50 11° SSW
USA 229 DEB 4.0 20:03:18 10° SW 20:10:06 64° NW 20:12:14 44° N
USA 229 3.9 20:03:24 10° SW 20:10:11 65° NW 20:12:16 45° N
ALOS 3.9 20:19:14 10° SSW 20:23:24 32° W 20:27:35 10° NNW
